Weather History for Minneapolis Flying Cloud, MN

Change the Weather History Date:

Tuesday, October 4, 2011

  Actual Average Record
Temperature  
Mean Temperature 68 °F -  
Max Temperature 86 °F 63 °F 86 °F (2011)
Min Temperature 53 °F 42 °F 32 °F (1999)
Cooling Degree Days 4    
Growing Degree Days 18 (Base 50)    
Moisture  
Dew Point 39 °F    
Average Humidity 38    
Maximum Humidity 69    
Minimum Humidity 20    
Precipitation  
Precipitation 0.00 in - - ()
Sea Level Pressure  
Sea Level Pressure 30.10 in    
Wind  
Wind Speed 6 mph (SE)    
Max Wind Speed 14 mph    
Max Gust Speed 20 mph    
Visibility 10 miles    
Events      
Averages and records for this station are not official NWS values.
T = Trace of Precipitation, MM = Missing Value Source: NWS Daily Summary

Daily Weather History Graph

Daily Weather History Graph

Search for Another Location

Airport:

Trip Planner

Search our weather history database for the weather conditions in past years. The results will help you decide how hot, cold, wet, or windy it might be!

Date:

Astronomy

Oct. 04, 2011 Rise Set
Actual Time 7:15 AM CDT 6:49 PM CDT
Civil Twilight 6:46 AM CDT 7:18 PM CDT
Nautical Twilight 6:12 AM CDT 7:52 PM CDT
Astronomical Twilight 5:37 AM CDT 8:26 PM CDT
Moon 3:07 PM CDT (10/4) No Moon Set
Length of Visible Light 12h 32m
Length of Day
11h 34m
First Quarter, 56% of the Moon is Illuminated
Oct 4
First Quarter
Oct 11
Full
Oct 19
Last Quarter
Oct 26
New
Nov 2
First Quarter

Hourly Weather History & Observations

Time (CDT) Temp. Dew Point Humidity Pressure Visibility Wind Dir Wind Speed Gust Speed Precip Events Conditions
12:53 AM 57.0 °F 42.1 °F 57% 30.15 in 10.0 mi Calm Calm - N/A   Clear
1:53 AM 55.0 °F 41.0 °F 59% 30.16 in 10.0 mi ESE 3.5 mph - N/A   Clear
2:53 AM 55.0 °F 37.9 °F 53% 30.16 in 10.0 mi South 6.9 mph - N/A   Clear
3:53 AM 54.0 °F 39.0 °F 57% 30.15 in 10.0 mi Calm Calm - N/A   Clear
4:53 AM 55.9 °F 37.0 °F 49% 30.15 in 10.0 mi South 5.8 mph - N/A   Clear
6:53 AM 55.0 °F 37.0 °F 51% 30.15 in 10.0 mi ESE 5.8 mph - N/A   Clear
7:53 AM 53.1 °F 43.0 °F 69% 30.17 in 10.0 mi East 4.6 mph - N/A   Clear
10:53 AM 72.0 °F 41.0 °F 33% 30.17 in 10.0 mi East 13.8 mph 19.6 mph N/A   Clear
11:53 AM 78.1 °F 37.9 °F 24% 30.15 in 10.0 mi South 11.5 mph - N/A   Clear
1:53 PM 84.0 °F 39.0 °F 20% 30.09 in 10.0 mi SE 12.7 mph - N/A   Clear
2:53 PM 84.9 °F 39.0 °F 20% 30.06 in 10.0 mi SSE 13.8 mph - N/A   Clear
3:53 PM 84.9 °F 39.0 °F 20% 30.05 in 10.0 mi SSE 13.8 mph - N/A   Clear
5:53 PM 81.0 °F 41.0 °F 24% 30.03 in 10.0 mi SSE 11.5 mph - N/A   Clear
6:53 PM 73.9 °F 41.0 °F 30% 30.04 in 10.0 mi SE 9.2 mph - N/A   Clear
7:53 PM 73.0 °F 39.0 °F 29% 30.04 in 10.0 mi SE 11.5 mph - N/A   Clear
8:53 PM 71.1 °F 37.9 °F 30% 30.04 in 10.0 mi SE 11.5 mph - N/A   Clear
9:53 PM 71.1 °F 37.0 °F 29% 30.04 in 10.0 mi SE 10.4 mph - N/A   Clear
10:53 PM 68.0 °F 37.0 °F 32% 30.04 in 10.0 mi SE 9.2 mph - N/A   Clear
11:53 PM 66.0 °F 37.9 °F 36% 30.04 in 10.0 mi ESE 8.1 mph - N/A   Clear